This is the latest recevied weather packets stored in our database for station/object YT1XN-8. If no packets are shown the sender has not sent any weather packets the latest 10 day(s).
| Time | Temp. | Humidity | Pressure | Rain* | Wind** | Luminosity | Snow |
|---|---|---|---|---|---|---|---|
| 1777986220 | 28.33° C | 36% | 1013.5 hPa | 0 mm | - | - | - |
| 1777986041 | 28.33° C | 35% | 1013.5 hPa | 0 mm | - | - | - |
| 1777985560 | 27.78° C | 35% | 1013.7 hPa | 0 mm | - | - | - |
| 1777985441 | 27.78° C | 36% | 1013.7 hPa | 0 mm | - | - | - |
| 1777984900 | 27.78° C | 33% | 1013.8 hPa | 0 mm | - | - | - |
| 1777984841 | 27.78° C | 33% | 1013.9 hPa | 0 mm | - | - | - |
| 1777984240 | 27.78° C | 36% | 1014.1 hPa | 0 mm | - | - | - |
| 1777983642 | 27.78° C | 39% | 1014.3 hPa | 0 mm | - | - | - |
| 1777983580 | 27.78° C | 37% | 1014.3 hPa | 0 mm | - | - | - |
| 1777983041 | 28.33° C | 31% | 1014.4 hPa | 0 mm | - | - | - |
| 1777982920 | 28.33° C | 32% | 1014.4 hPa | 0 mm | - | - | - |
| 1777982441 | 28.33° C | 33% | 1014.4 hPa | 0 mm | - | - | - |
| 1777982260 | 28.33° C | 35% | 1014.4 hPa | 0 mm | - | - | - |
| 1777981841 | 28.33° C | 33% | 1014.5 hPa | 0 mm | - | - | - |
| 1777981600 | 27.78° C | 34% | 1014.6 hPa | 0 mm | - | - | - |
| 1777981241 | 27.22° C | 37% | 1014.5 hPa | 0 mm | - | - | - |
| 1777980939 | 27.22° C | 33% | 1014.5 hPa | 0 mm | - | - | - |
| 1777980641 | 27.22° C | 33% | 1014.6 hPa | 0 mm | - | - | - |
| 1777980280 | 27.78° C | 35% | 1014.7 hPa | 0 mm | - | - | - |
| 1777980041 | 27.78° C | 32% | 1014.7 hPa | 0 mm | - | - | - |
| 1777979620 | 27.78° C | 34% | 1014.8 hPa | 0 mm | - | - | - |
| 1777979441 | 27.78° C | 32% | 1014.8 hPa | 0 mm | - | - | - |
| 1777978960 | 27.78° C | 40% | 1014.7 hPa | 0 mm | - | - | - |
| 1777978841 | 27.78° C | 38% | 1014.8 hPa | 0 mm | - | - | - |
| 1777978299 | 27.22° C | 40% | 1014.8 hPa | 0 mm | - | - | - |
* Rain latest hour (hover to see other rain measurements)
** Current wind speed in m/s (hover to see current wind gust speed)